User: anonymous   Login
Location: Oshawa
(43.9000°N, 78.8670°W)
Time: 23:37:57
(UTC-05:00)
Language:

PAYLOAD A - Orbit

View from above orbital plane
View from above orbital plane
View from above satellite
View from above satellite

Ground track
Ground track

The orbit data is extracted from the following two-line orbital elements,

1 27840U 03031A   16043.22019568  .00000016  00000-0  18053-4 0  9993
2 27840  98.1993  56.2477 0098768 158.5738 225.8850 14.38843073662711
Epoch (UTC): 12 February 2016 05:17:04
Eccentricity: 0.0098768
inclination: 98.1993°
perigee height: 692 km
apogee height: 833 km
right ascension of ascending node: 56.2477°
argument of perigee: 158.5738°
revolutions per day: 14.38843073
mean anomaly at epoch: 225.8850°
orbit number at epoch: 66271

The dashed part of the orbit path shows where the satellite is in the earth's shadow,  

DLR